Sergeant Bluff, IA

1:06 PM CDT on September 25, 2016 (GMT -0500)
Sioux Gateway

Weather History for KSUX - July, 2013

Change the Weather History Date:

Friday, July 19, 2013

  Actual Average Record
Temperature  
Mean Temperature 79 °F 75 °F  
Max Temperature 93 °F 86 °F 106 °F (1934)
Min Temperature 64 °F 64 °F 49 °F (2009)
Degree Days  
Heating Degree Days 0 0  
Month to date heating degree days 0 0  
Since 1 June heating degree days 40 27  
Since 1 July heating degree days 0 0  
Cooling Degree Days 14 10  
Month to date cooling degree days 221 184  
Year to date cooling degree days 472 436  
Since 1 June cooling degree days 416 372  
Growing Degree Days 33 (Base 50)    
Moisture  
Dew Point 62 °F    
Average Humidity 55    
Maximum Humidity 81    
Minimum Humidity 29    
Precipitation  
Precipitation 0.00 in 0.10 in 1.84 in (1912)
Month to date precipitation 0.19 2.15  
Year to date precipitation 16.65 16.02  
Snow  
Snow 0.00 in 0.00 in 0.00 in ()
Month to date snowfall 0.0 0.0  
Since 1 June snowfall 0.0 0.0  
Since 1 July snowfall 0.0 0.0  
Snow Depth 0.00 in    
Sea Level Pressure  
Sea Level Pressure 29.88 in    
Wind  
Wind Speed 8 mph (WNW)    
Max Wind Speed 21 mph    
Max Gust Speed 28 mph    
Visibility 10 miles    
Events      
T = Trace of Precipitation, MM = Missing Value Source: NWS Daily Summary

Daily Weather History Graph

Daily Weather History Graph

Search for Another Location

Airport or City:

Trip Planner

Search our weather history database for the weather conditions in past years. The results will help you decide how hot, cold, wet, or windy it might be!

Date:

Astronomy

Jul. 19, 2013 Rise Set
Actual Time 6:05 AM CDT 8:57 PM CDT
Civil Twilight 5:32 AM CDT 9:30 PM CDT
Nautical Twilight 4:50 AM CDT 10:12 PM CDT
Astronomical Twilight 4:01 AM CDT 11:00 PM CDT
Moon 6:01 PM CDT (7/19) 2:48 AM CDT (7/19)
Length of Visible Light 15h 58m
Length of Day
14h 51m
Waxing Gibbous, 87% of the Moon is Illuminated
Jul 19
Waxing Gibbous
Jul 22
Full
Jul 29
Last Quarter
Aug 6
New
Aug 14
First Quarter

Hourly Weather History & Observations

Time (CDT) Temp. Heat Index Dew Point Humidity Pressure Visibility Wind Dir Wind Speed Gust Speed Precip Events Conditions
12:52 AM 82.0 °F 83.8 °F 64.9 °F 56% 29.86 in 10.0 mi SW 16.1 mph - N/A   Clear
1:52 AM 82.0 °F 83.8 °F 64.9 °F 56% 29.85 in 10.0 mi SW 16.1 mph 26.5 mph N/A   Clear
2:52 AM 81.0 °F 82.5 °F 64.0 °F 56% 29.84 in 10.0 mi SW 17.3 mph 24.2 mph N/A   Clear
3:52 AM 80.1 °F 81.7 °F 64.0 °F 58% 29.83 in 10.0 mi WSW 12.7 mph 20.7 mph N/A   Clear
4:52 AM 80.1 °F 81.7 °F 64.0 °F 58% 29.82 in 10.0 mi WSW 12.7 mph 19.6 mph N/A   Partly Cloudy
5:52 AM 79.0 °F - 64.0 °F 60% 29.83 in 10.0 mi WSW 8.1 mph - N/A   Scattered Clouds
6:52 AM 75.9 °F - 64.0 °F 67% 29.84 in 10.0 mi NW 4.6 mph - N/A   Clear
7:52 AM 78.1 °F - 64.9 °F 64% 29.87 in 10.0 mi Calm Calm - N/A   Clear
8:52 AM 80.1 °F 82.3 °F 66.9 °F 64% 29.89 in 10.0 mi SSW 3.5 mph - N/A   Clear
9:52 AM 84.9 °F 88.2 °F 68.0 °F 57% 29.89 in 10.0 mi NW 4.6 mph - N/A   Clear
10:52 AM 89.1 °F 92.1 °F 66.9 °F 48% 29.90 in 10.0 mi NNW 6.9 mph - N/A   Clear
11:52 AM 90.0 °F 94.5 °F 69.1 °F 50% 29.89 in 10.0 mi NW 11.5 mph 16.1 mph N/A   Clear
12:52 PM 91.9 °F 91.8 °F 61.0 °F 35% 29.90 in 10.0 mi NW 10.4 mph - N/A   Clear
1:52 PM 91.9 °F 90.6 °F 57.0 °F 31% 29.90 in 10.0 mi NNW 15.0 mph - N/A   Clear
2:52 PM 91.9 °F 90.8 °F 57.9 °F 32% 29.90 in 10.0 mi NNW 12.7 mph 21.9 mph N/A   Clear
3:52 PM 91.9 °F 90.8 °F 57.9 °F 32% 29.89 in 10.0 mi NW 10.4 mph - N/A   Clear
4:52 PM 91.0 °F 88.9 °F 55.0 °F 29% 29.89 in 10.0 mi NNW 10.4 mph - N/A   Clear
5:52 PM 90.0 °F 87.7 °F 54.0 °F 29% 29.88 in 10.0 mi NW 9.2 mph - N/A   Clear
6:52 PM 87.1 °F 86.5 °F 59.0 °F 39% 29.87 in 10.0 mi NNE 11.5 mph - N/A   Clear
7:52 PM 84.9 °F 84.4 °F 59.0 °F 41% 29.88 in 10.0 mi NNE 5.8 mph - N/A   Clear
8:52 PM 81.0 °F 81.3 °F 59.0 °F 47% 29.89 in 10.0 mi NNW 3.5 mph - N/A   Clear
9:52 PM 73.0 °F - 60.1 °F 64% 29.91 in 10.0 mi NW 4.6 mph - N/A   Clear
10:52 PM 75.0 °F - 62.1 °F 64% 29.91 in 10.0 mi NNW 3.5 mph - N/A   Clear
11:52 PM 66.9 °F - 60.1 °F 79% 29.93 in 10.0 mi WNW 4.6 mph - N/A   Clear